sat.trackr.live / text

‹ back to catalog

STARLINK-32708

NORAD 62495 · 2025-003J

PAYLOAD ACTIVE UNKNOWN

§ Identity

Operator
Country
US
Launch date
2025-01-06
Launch site
AFETR
Launch vehicle
Mass (kg)
RCS (m²)

Purposes: comms

External: N2YO · Heavens-Above · Gunter

§ Orbital elements

Epoch: 2026-09-21T00:34:30.339264Z

Period
94.27 min
Inclination
43.0001°
Eccentricity
0.0001344
Mean motion
15.27597885 rev/d
Perigee alt
482.1 km
Apogee alt
483.9 km
Semi-major
6,861.1 km
B*
3.7262e-4
RAAN
265.9784°
Arg perigee
268.4743°
Mean anomaly
91.5955°
Rev number
9,642

§ Raw data

STARLINK-327081 62495U 25003J   26264.02396226  .00010011  00000+0  37262-3 0  99912 62495  43.0001 265.9784 0001344 268.4743  91.5955 15.27597885 96425

JSON: /api/v1/satellites/62495 · /tle

For live sub-satellite position, see the globe view (requires WebGL).

§ Visibility from observer

Set your observer location to see the next 7 days of passes ≥ 10°. The values pass through the URL so the page stays shareable.

No JS? Fill the form by hand. The geolocation button needs JavaScript.